User: anonymous   Login
Location: Unspecified
(0.0000°N, 0.0000°E)
Time: 10:20:21
(UTC+00:00)
Language:

COSMOS 2498 - Orbit

View from above orbital plane
View from above orbital plane
View from above satellite
View from above satellite

Ground track
Ground track

The orbit data is extracted from the following two-line orbital elements,

1 39763U 14028C   17080.84284775 +.00000010 +00000-0 +00000-0 0  9995
2 39763 082.4442 062.3718 0019806 220.5888 139.3720 12.42894410128403
Epoch (UTC): 21 March 2017 20:13:42
Eccentricity: 0.0019806
inclination: 82.4442°
perigee height: 1479 km
apogee height: 1510 km
right ascension of ascending node: 62.3718°
argument of perigee: 220.5888°
revolutions per day: 12.42894410
mean anomaly at epoch: 139.3720°
orbit number at epoch: 12840

The dashed part of the orbit path shows where the satellite is in the earth's shadow,  

DLR